Richmond Hanover County, VA

12:02 PM EST on January 22, 2018 (GMT -0500)
Hanover County Municipal

Weather History for KOFP - May, 2014

Change the Weather History Date:

Monday, May 5, 2014

  Actual Average Record
Temperature  
Mean Temperature 54 °F -  
Max Temperature 66 °F 73 °F 89 °F (1965)
Min Temperature 46 °F 47 °F 33 °F (1966)
Degree Days  
Heating Degree Days 10    
Growing Degree Days 4 (Base 50)    
Moisture  
Dew Point 40 °F    
Average Humidity 61    
Maximum Humidity 89    
Minimum Humidity 27    
Precipitation  
Precipitation 0.00 in - - ()
Sea Level Pressure  
Sea Level Pressure 30.00 in    
Wind  
Wind Speed 2 mph (WNW)    
Max Wind Speed 8 mph    
Max Gust Speed -    
Visibility 10 miles    
Events Rain    
Averages and records for this station are not official NWS values.
T = Trace of Precipitation, MM = Missing Value Source: NWS Daily Summary

Daily Weather History Graph

Daily Weather History Graph

Search for Another Location

Airport or City:

Trip Planner

Search our weather history database for the weather conditions in past years. The results will help you decide how hot, cold, wet, or windy it might be!

Date:

Astronomy

May. 05, 2014 Rise Set
Actual Time 6:09 AM EDT 8:03 PM EDT
Civil Twilight 5:41 AM EDT 8:32 PM EDT
Nautical Twilight 5:06 AM EDT 9:07 PM EDT
Astronomical Twilight 4:29 AM EDT 9:44 PM EDT
Moon 11:27 AM EDT (5/5) 12:46 AM EDT (5/5)
Length of Visible Light 14h 51m
Length of Day
13h 54m
Waxing Crescent, 36% of the Moon is Illuminated
May 5
Waxing Crescent
May 6
First Quarter
May 14
Full
May 21
Last Quarter
May 28
New

Hourly Weather History & Observations

Time (EDT) Temp. Dew Point Humidity Pressure Visibility Wind Dir Wind Speed Gust Speed Precip Events Conditions
12:54 AM 54.0 °F 46.0 °F 75% 29.95 in 10.0 mi Calm Calm - N/A   Clear
1:54 AM 53.1 °F 45.0 °F 74% 29.97 in 10.0 mi North 3.5 mph - N/A   Clear
2:54 AM 54.0 °F 44.1 °F 69% 29.99 in 10.0 mi Calm Calm - N/A   Clear
3:54 AM 50.0 °F 44.1 °F 80% 29.99 in 10.0 mi Calm Calm - N/A   Clear
4:54 AM 48.0 °F 43.0 °F 83% 30.01 in 10.0 mi Calm Calm - N/A   Clear
5:54 AM 46.9 °F 39.0 °F 74% 30.01 in 10.0 mi Calm Calm - N/A   Clear
6:54 AM 50.0 °F 36.0 °F 59% 30.05 in 10.0 mi Calm Calm - N/A   Scattered Clouds
7:54 AM 52.0 °F 35.1 °F 53% 30.07 in 10.0 mi Calm Calm - N/A   Clear
8:54 AM 55.0 °F 34.0 °F 45% 30.07 in 10.0 mi NW 6.9 mph - N/A   Scattered Clouds
9:54 AM 57.9 °F 30.9 °F 36% 30.06 in 10.0 mi ENE 8.1 mph - N/A   Clear
10:54 AM 60.1 °F 30.9 °F 33% 30.06 in 10.0 mi West 4.6 mph - N/A   Clear
11:54 AM 63.0 °F 30.0 °F 29% 30.04 in 10.0 mi NW 5.8 mph - N/A   Clear
12:54 PM 63.0 °F 28.0 °F 27% 30.02 in 10.0 mi North - - N/A   Clear
2:54 PM 62.1 °F 33.1 °F 34% 30.00 in 10.0 mi WNW 5.8 mph - N/A   Overcast
3:54 PM 57.9 °F 44.1 °F 60% 30.01 in 10.0 mi WNW 4.6 mph - 0.00 in Rain Light Rain
4:54 PM 59.0 °F 37.9 °F 46% 29.97 in 10.0 mi Calm Calm - 0.00 in Rain Light Rain
5:54 PM 59.0 °F 41.0 °F 51% 29.95 in 10.0 mi SW 3.5 mph - 0.00 in   Mostly Cloudy
6:54 PM 59.0 °F 46.0 °F 62% 29.97 in 10.0 mi WSW 4.6 mph - N/A   Mostly Cloudy
7:54 PM 55.9 °F 48.0 °F 75% 29.97 in 10.0 mi Calm Calm - N/A   Mostly Cloudy
8:54 PM 54.0 °F 48.9 °F 83% 29.96 in 10.0 mi Calm Calm - N/A   Mostly Cloudy
9:54 PM 51.1 °F 46.9 °F 86% 29.97 in 10.0 mi Calm Calm - N/A   Partly Cloudy
10:54 PM 52.0 °F 48.9 °F 89% 29.97 in 10.0 mi Calm Calm - N/A   Overcast
11:54 PM 55.0 °F 48.9 °F 80% 29.95 in 10.0 mi Calm Calm - N/A   Overcast